Time,TemperatureF,DewpointF,PressureIn,WindDirection,WindDirectionDegrees,WindSpeedMPH,WindSpeedGustMPH,Humidity,HourlyPrecipIn,Conditions,Clouds,dailyrainin,SoftwareType,DateUTC
2013-02-21 00:08:00,46.8,35.7,29.82,NW,315,5.3,-999.0,65,-99.99,,,0.00,Acu-Link.com,2013-02-21 08:08:00,
2013-02-21 00:23:00,45.7,35.4,29.82,West,270,4.7,-999.0,67,-99.99,,,0.00,Acu-Link.com,2013-02-21 08:23:00,
2013-02-21 00:38:00,46.8,35.7,29.83,WNW,292,7.8,-999.0,65,-99.99,,,0.00,Acu-Link.com,2013-02-21 08:38:00,
2013-02-21 00:54:00,46.4,35.3,29.82,WNW,292,5.3,-999.0,65,-99.99,,,0.00,Acu-Link.com,2013-02-21 08:54:00,
2013-02-21 01:20:00,46.2,35.5,29.82,WNW,292,3.7,-999.0,66,-99.99,,,0.00,Acu-Link.com,2013-02-21 09:20:00,
2013-02-21 01:36:00,45.9,35.2,29.83,West,270,7.8,-999.0,66,-99.99,,,0.00,Acu-Link.com,2013-02-21 09:36:00,
2013-02-21 01:51:00,46.2,35.5,29.83,WNW,292,6.8,-999.0,66,-99.99,,,0.00,Acu-Link.com,2013-02-21 09:51:00,
2013-02-21 02:06:00,46.6,35.1,29.83,NNE,22,5.8,-999.0,64,-99.99,,,0.00,Acu-Link.com,2013-02-21 10:06:00,
2013-02-21 02:21:00,46.4,34.5,29.82,WSW,247,7.3,-999.0,63,-99.99,,,0.00,Acu-Link.com,2013-02-21 10:21:00,
2013-02-21 02:36:00,46.2,34.3,29.82,NNE,22,6.8,-999.0,63,-99.99,,,0.00,Acu-Link.com,2013-02-21 10:36:00,
2013-02-21 02:51:00,46.0,34.1,29.82,ESE,112,5.8,-999.0,63,-99.99,,,0.00,Acu-Link.com,2013-02-21 10:51:00,
2013-02-21 03:06:00,45.7,34.2,29.83,SW,225,2.7,-999.0,64,-99.99,,,0.00,Acu-Link.com,2013-02-21 11:06:00,
2013-02-21 03:22:00,45.1,33.7,29.83,West,270,3.7,-999.0,64,-99.99,,,0.00,Acu-Link.com,2013-02-21 11:22:00,
2013-02-21 03:37:00,44.1,33.1,29.84,ENE,67,0.0,-999.0,65,-99.99,,,0.00,Acu-Link.com,2013-02-21 11:37:00,
2013-02-21 03:52:00,42.4,33.3,29.85,East,90,0.0,-999.0,70,-99.99,,,0.00,Acu-Link.com,2013-02-21 11:52:00,
2013-02-21 04:08:00,40.8,33.5,29.85,ENE,67,1.1,-999.0,75,-99.99,,,0.00,Acu-Link.com,2013-02-21 12:08:00,
2013-02-21 04:23:00,39.7,33.7,29.86,SW,225,0.0,-999.0,79,-99.99,,,0.00,Acu-Link.com,2013-02-21 12:23:00,
2013-02-21 04:38:00,38.8,33.2,29.87,ENE,67,0.0,-999.0,80,-99.99,,,0.00,Acu-Link.com,2013-02-21 12:38:00,
2013-02-21 04:54:00,38.3,32.1,29.87,NNE,22,0.0,-999.0,78,-99.99,,,0.00,Acu-Link.com,2013-02-21 12:54:00,
2013-02-21 05:09:00,38.1,32.5,29.87,SSW,202,2.2,-999.0,80,-99.99,,,0.00,Acu-Link.com,2013-02-21 13:09:00,
2013-02-21 05:24:00,39.0,32.7,29.87,WSW,247,1.7,-999.0,78,-99.99,,,0.00,Acu-Link.com,2013-02-21 13:24:00,
2013-02-21 05:40:00,39.4,33.1,29.88,WSW,247,2.7,-999.0,78,-99.99,,,0.00,Acu-Link.com,2013-02-21 13:40:00,
2013-02-21 05:55:00,39.9,33.3,29.88,WNW,292,4.2,-999.0,77,-99.99,,,0.00,Acu-Link.com,2013-02-21 13:55:00,
2013-02-21 06:10:00,41.5,33.5,29.88,WNW,292,3.2,-999.0,73,-99.99,,,0.00,Acu-Link.com,2013-02-21 14:10:00,
2013-02-21 06:26:00,41.4,33.4,29.89,ENE,67,2.7,-999.0,73,-99.99,,,0.00,Acu-Link.com,2013-02-21 14:26:00,
2013-02-21 06:41:00,40.8,33.2,29.89,West,270,1.7,-999.0,74,-99.99,,,0.00,Acu-Link.com,2013-02-21 14:41:00,
2013-02-21 06:57:00,41.0,33.4,29.89,West,270,3.7,-999.0,74,-99.99,,,0.00,Acu-Link.com,2013-02-21 14:57:00,
2013-02-21 07:12:00,41.4,33.4,29.89,WNW,292,1.7,-999.0,73,-99.99,,,0.00,Acu-Link.com,2013-02-21 15:12:00,
2013-02-21 07:27:00,42.1,33.7,29.90,WSW,247,0.0,-999.0,72,-99.99,,,0.00,Acu-Link.com,2013-02-21 15:27:00,
2013-02-21 07:42:00,43.7,33.8,29.90,SE,135,2.2,-999.0,68,-99.99,,,0.00,Acu-Link.com,2013-02-21 15:42:00,
2013-02-21 07:58:00,44.8,34.5,29.91,ESE,112,0.0,-999.0,67,-99.99,,,0.00,Acu-Link.com,2013-02-21 15:58:00,
2013-02-21 08:13:00,45.3,34.6,29.92,SSW,202,2.2,-999.0,66,-99.99,,,0.00,Acu-Link.com,2013-02-21 16:13:00,
2013-02-21 08:28:00,47.8,36.2,29.93,SSE,157,0.0,-999.0,64,-99.99,,,0.00,Acu-Link.com,2013-02-21 16:28:00,
2013-02-21 08:44:00,48.7,35.0,29.93,South,180,3.7,-999.0,59,-99.99,,,0.00,Acu-Link.com,2013-02-21 16:44:00,
2013-02-21 08:59:00,51.1,36.4,29.94,SSE,157,2.2,-999.0,57,-99.99,,,0.00,Acu-Link.com,2013-02-21 16:59:00,
2013-02-21 09:14:00,52.0,34.9,29.94,NW,315,4.2,-999.0,52,-99.99,,,0.00,Acu-Link.com,2013-02-21 17:14:00,
2013-02-21 09:29:00,54.5,34.1,29.94,ESE,112,4.7,-999.0,46,-99.99,,,0.00,Acu-Link.com,2013-02-21 17:29:00,
2013-02-21 09:45:00,54.9,34.0,29.95,NE,45,3.2,-999.0,45,-99.99,,,0.00,Acu-Link.com,2013-02-21 17:45:00,
2013-02-21 10:00:00,55.6,34.0,29.95,East,90,4.7,-999.0,44,-99.99,,,0.00,Acu-Link.com,2013-02-21 18:00:00,
2013-02-21 10:15:00,56.1,33.3,29.95,ENE,67,7.3,-999.0,42,-99.99,,,0.00,Acu-Link.com,2013-02-21 18:15:00,
2013-02-21 10:30:00,56.5,33.1,29.96,SSE,157,5.8,-999.0,41,-99.99,,,0.00,Acu-Link.com,2013-02-21 18:30:00,
2013-02-21 10:45:00,56.7,32.7,29.96,East,90,4.7,-999.0,40,-99.99,,,0.00,Acu-Link.com,2013-02-21 18:45:00,
2013-02-21 11:01:00,57.4,33.3,29.96,West,270,4.2,-999.0,40,-99.99,,,0.00,Acu-Link.com,2013-02-21 19:01:00,
2013-02-21 11:16:00,57.9,33.7,29.95,NNE,22,3.2,-999.0,40,-99.99,,,0.00,Acu-Link.com,2013-02-21 19:16:00,
2013-02-21 11:31:00,59.0,33.4,29.95,ESE,112,3.2,-999.0,38,-99.99,,,0.00,Acu-Link.com,2013-02-21 19:31:00,
2013-02-21 11:46:00,59.4,33.8,29.95,East,90,5.3,-999.0,38,-99.99,,,0.00,Acu-Link.com,2013-02-21 19:46:00,
2013-02-21 12:01:00,61.5,33.6,29.94,SW,225,1.1,-999.0,35,-99.99,,,0.00,Acu-Link.com,2013-02-21 20:01:00,
2013-02-21 12:17:00,61.7,36.5,29.93,East,90,1.1,-999.0,39,-99.99,,,0.00,Acu-Link.com,2013-02-21 20:17:00,
2013-02-21 12:32:00,61.2,32.6,29.92,ESE,112,3.7,-999.0,34,-99.99,,,0.00,Acu-Link.com,2013-02-21 20:32:00,
2013-02-21 12:47:00,61.2,31.9,29.92,NE,45,1.7,-999.0,33,-99.99,,,0.00,Acu-Link.com,2013-02-21 20:47:00,
2013-02-21 13:03:00,61.9,30.1,29.91,ENE,67,4.2,-999.0,30,-99.99,,,0.00,Acu-Link.com,2013-02-21 21:03:00,
2013-02-21 13:18:00,62.6,30.7,29.91,NW,315,3.2,-999.0,30,-99.99,,,0.00,Acu-Link.com,2013-02-21 21:18:00,
2013-02-21 13:33:00,63.5,32.3,29.90,ENE,67,1.7,-999.0,31,-99.99,,,0.00,Acu-Link.com,2013-02-21 21:33:00,
2013-02-21 13:48:00,63.7,30.9,29.90,SW,225,0.0,-999.0,29,-99.99,,,0.00,Acu-Link.com,2013-02-21 21:48:00,
2013-02-21 14:04:00,63.5,31.5,29.90,East,90,0.0,-999.0,30,-99.99,,,0.00,Acu-Link.com,2013-02-21 22:04:00,
2013-02-21 14:19:00,63.3,28.8,29.90,ENE,67,6.3,-999.0,27,-99.99,,,0.00,Acu-Link.com,2013-02-21 22:19:00,
2013-02-21 14:34:00,63.3,27.8,29.89,ESE,112,2.7,-999.0,26,-99.99,,,0.00,Acu-Link.com,2013-02-21 22:34:00,
2013-02-21 14:49:00,63.9,26.4,29.90,West,270,1.7,-999.0,24,-99.99,,,0.00,Acu-Link.com,2013-02-21 22:49:00,
2013-02-21 15:04:00,64.4,29.7,29.89,NNW,337,1.7,-999.0,27,-99.99,,,0.00,Acu-Link.com,2013-02-21 23:04:00,
2013-02-21 15:20:00,65.5,28.7,29.89,ENE,67,3.2,-999.0,25,-99.99,,,0.00,Acu-Link.com,2013-02-21 23:20:00,
2013-02-21 15:35:00,64.2,28.6,29.88,East,90,2.2,-999.0,26,-99.99,,,0.00,Acu-Link.com,2013-02-21 23:35:00,
2013-02-21 15:50:00,64.0,30.2,29.87,East,90,4.2,-999.0,28,-99.99,,,0.00,Acu-Link.com,2013-02-21 23:50:00,
2013-02-21 16:05:00,63.7,29.1,29.88,NE,45,3.2,-999.0,27,-99.99,,,0.00,Acu-Link.com,2013-02-22 00:05:00,
2013-02-21 16:21:00,63.3,28.8,29.89,ENE,67,3.2,-999.0,27,-99.99,,,0.00,Acu-Link.com,2013-02-22 00:21:00,
2013-02-21 16:36:00,63.5,28.9,29.88,SSW,202,0.0,-999.0,27,-99.99,,,0.00,Acu-Link.com,2013-02-22 00:36:00,
2013-02-21 16:51:00,63.3,35.9,29.89,ESE,112,0.0,-999.0,36,-99.99,,,0.00,Acu-Link.com,2013-02-22 00:51:00,
2013-02-21 17:07:00,62.4,37.1,29.89,NW,315,0.0,-999.0,39,-99.99,,,0.00,Acu-Link.com,2013-02-22 01:07:00,
2013-02-21 17:22:00,60.6,36.8,29.89,South,180,1.1,-999.0,41,-99.99,,,0.00,Acu-Link.com,2013-02-22 01:22:00,
2013-02-21 17:37:00,58.8,36.9,29.89,SSW,202,0.0,-999.0,44,-99.99,,,0.00,Acu-Link.com,2013-02-22 01:37:00,
2013-02-21 17:53:00,56.7,36.7,29.89,West,270,0.0,-999.0,47,-99.99,,,0.00,Acu-Link.com,2013-02-22 01:53:00,
2013-02-21 18:08:00,54.3,36.1,29.89,ENE,67,2.2,-999.0,50,-99.99,,,0.00,Acu-Link.com,2013-02-22 02:08:00,
2013-02-21 18:23:00,52.5,35.9,29.90,WNW,292,0.0,-999.0,53,-99.99,,,0.00,Acu-Link.com,2013-02-22 02:23:00,
2013-02-21 18:39:00,51.1,36.0,29.91,West,270,1.1,-999.0,56,-99.99,,,0.00,Acu-Link.com,2013-02-22 02:39:00,
2013-02-21 18:54:00,49.8,36.1,29.91,West,270,0.0,-999.0,59,-99.99,,,0.00,Acu-Link.com,2013-02-22 02:54:00,
2013-02-21 19:09:00,47.7,38.4,29.91,NNW,337,0.0,-999.0,70,-99.99,,,0.00,Acu-Link.com,2013-02-22 03:09:00,
2013-02-21 19:24:00,46.4,37.5,29.91,SE,135,0.0,-999.0,71,-99.99,,,0.00,Acu-Link.com,2013-02-22 03:24:00,
2013-02-21 19:40:00,45.5,35.9,29.91,WNW,292,1.7,-999.0,69,-99.99,,,0.00,Acu-Link.com,2013-02-22 03:40:00,
2013-02-21 19:55:00,45.9,34.8,29.91,NE,45,2.2,-999.0,65,-99.99,,,0.00,Acu-Link.com,2013-02-22 03:55:00,
2013-02-21 20:10:00,46.2,34.7,29.91,West,270,2.7,-999.0,64,-99.99,,,0.00,Acu-Link.com,2013-02-22 04:10:00,
2013-02-21 20:26:00,46.9,33.8,29.92,West,270,2.2,-999.0,60,-99.99,,,0.00,Acu-Link.com,2013-02-22 04:26:00,
2013-02-21 20:41:00,47.7,34.1,29.92,West,270,2.7,-999.0,59,-99.99,,,0.00,Acu-Link.com,2013-02-22 04:41:00,
2013-02-21 20:56:00,47.7,34.1,29.92,West,270,2.7,-999.0,59,-99.99,,,0.00,Acu-Link.com,2013-02-22 04:56:00,
2013-02-21 21:11:00,46.9,35.0,29.93,West,270,0.0,-999.0,63,-99.99,,,0.00,Acu-Link.com,2013-02-22 05:11:00,
2013-02-21 21:27:00,50.0,33.6,29.93,NNW,337,2.2,-999.0,53,-99.99,,,0.00,Acu-Link.com,2013-02-22 05:27:00,
2013-02-21 21:42:00,47.5,34.3,29.94,NE,45,0.0,-999.0,60,-99.99,,,0.00,Acu-Link.com,2013-02-22 05:42:00,
2013-02-21 21:57:00,46.2,33.9,29.94,NNE,22,1.7,-999.0,62,-99.99,,,0.00,Acu-Link.com,2013-02-22 05:57:00,
2013-02-21 22:13:00,46.0,32.5,29.94,ENE,67,2.2,-999.0,59,-99.99,,,0.00,Acu-Link.com,2013-02-22 06:13:00,
2013-02-21 22:28:00,45.1,31.6,29.95,West,270,0.0,-999.0,59,-99.99,,,0.00,Acu-Link.com,2013-02-22 06:28:00,
2013-02-21 22:43:00,46.0,33.3,29.94,South,180,0.0,-999.0,61,-99.99,,,0.00,Acu-Link.com,2013-02-22 06:43:00,
2013-02-21 22:59:00,44.4,32.6,29.95,WNW,292,0.0,-999.0,63,-99.99,,,0.00,Acu-Link.com,2013-02-22 06:59:00,
2013-02-21 23:14:00,45.5,32.8,29.95,West,270,1.1,-999.0,61,-99.99,,,0.00,Acu-Link.com,2013-02-22 07:14:00,
2013-02-21 23:29:00,49.1,33.6,29.95,NW,315,3.7,-999.0,55,-99.99,,,0.00,Acu-Link.com,2013-02-22 07:29:00,
2013-02-21 23:45:00,49.3,33.8,29.95,West,270,4.2,-999.0,55,-99.99,,,0.00,Acu-Link.com,2013-02-22 07:45:00,